[[{"header":{"parameterUnit":"m.s-1","parameterCategory":1,"la1":30.2991,"la2":30.254,"lo1":-89.0895,"lo2":-89.0444,"dy":0.0017,"dx":0.0017,"nx":28,"ny":28,"refTime":"2025-11-28T03:00:00:Z","depth":0,"parameterNumber":2,"parameterNumberName":"U-component_of_WINDS"},"data":[0,0,0,0,0,0,0,0,0,0,0,0,0,0,0,0,0,0,0,0,0,0,0,0,0,0,0,0,0,0,0,0,0,0,0,0,0,0,0,0,0,0,0,0,0,0,0,0,0,0,0,0,0,0,0,0,0,0,-2.5607,-2.5607,0,-2.5662,-2.5663,-2.5663,-2.5563,-2.556,-2.5556,-2.5553,-2.5611,-2.5616,-2.562,0,0,0,0,0,0,0,0,0,0,0,0,0,-2.5413,-2.5417,-2.5606,-2.5607,-2.5608,-2.5662,-2.5663,-2.5664,-2.5564,-2.5559,-2.5555,-2.5551,-2.5609,-2.5615,-2.5621,0,0,0,0,0,0,0,0,0,0,0,0,0,-2.5486,-2.5418,-2.5606,-2.5564,-2.5561,-2.5662,-2.5663,-2.5664,-2.5564,-2.5559,-2.5554,-2.555,-2.5608,-2.5614,-2.5621,-2.5766,0,0,-2.5643,-2.5646,0,0,0,0,0,0,0,0,-2.5482,-2.5493,-2.557,-2.5568,-2.5564,-2.56,-2.5616,-2.5698,-2.5566,-2.5563,-2.5553,-2.5547,-2.5612,-2.5618,-2.564,-2.5769,-2.5771,-2.5643,-2.5648,-2.5651,-2.5653,0,0,0,0,0,0,0,-2.5477,-2.549,-2.5628,-2.5571,-2.5568,-2.5543,-2.5547,-2.5631,-2.5615,-2.5563,-2.5556,-2.5564,-2.5609,-2.5633,-2.564,-2.5772,-2.5643,-2.565,-2.5654,-2.5657,-2.6021,-2.6026,0,0,0,0,0,0,-2.5477,-2.5486,-2.5627,-2.563,-2.551,-2.555,-2.5556,-2.5594,-2.5614,-2.5612,-2.5568,-2.5559,-2.5624,-2.5632,-2.5642,-2.5813,-2.5651,-2.5657,-2.5661,-2.6016,-2.6022,-2.6028,0,0,0,0,0,0,-2.5473,-2.549,-2.5624,-2.5556,-2.5572,-2.5559,-2.5603,-2.5598,-2.5622,-2.5618,-2.5614,-2.5596,-2.562,-2.5632,-2.5736,-2.5813,-2.566,-2.5667,-2.6009,-2.6018,-2.6025,-2.6155,0,0,0,0,0,0,-2.5468,-2.549,-2.5545,-2.5558,-2.5576,-2.5718,-2.5608,-2.5602,-2.5634,-2.5622,-2.5643,-2.5641,-2.5617,-2.5726,-2.5743,-2.582,-2.5672,-2.6002,-2.6013,-2.6023,-2.6144,-2.6167,-2.6186,0,0,0,0,0,-2.5462,-2.558,-2.5548,-2.5566,-2.5644,-2.5723,-2.5732,-2.5702,-2.5641,-2.5696,-2.5693,-2.5641,-2.5801,-2.5737,-2.5755,-2.5836,-2.5997,-2.601,-2.6022,-2.6135,-2.6162,-2.6186,0,0,0,0,0,0,-2.5576,-2.5581,-2.5546,-2.5672,-2.5698,-2.5706,-2.5775,-2.5732,-2.5777,-2.5764,-2.5724,-2.573,-2.5841,-2.5848,-2.5777,-2.5976,-2.5889,-2.5906,-2.5968,-2.5995,-2.6015,-2.6012,-2.5678,0,0,0,0,0,-2.5616,-2.5679,-2.5679,-2.5791,-2.5805,-2.5788,-2.5821,-2.5795,-2.582,-2.5831,-2.5835,-2.5862,-2.5918,-2.5956,-2.6008,-2.6143,-2.6146,-2.6208,-2.6229,-2.6246,-2.6262,-2.6334,-2.6361,-2.6069,-2.6069,-2.6069,0,0,-2.5699,-2.5709,-2.5752,-2.5814,-2.5831,-2.5897,-2.5798,-2.5872,-2.5921,-2.5842,-2.594,-2.5945,-2.5971,-2.6092,-2.6145,-2.6101,-2.6343,-2.6262,-2.6276,-2.6282,-2.6349,-2.6377,-2.6402,-2.6077,-2.6076,-2.6074,0,0,-2.5885,-2.5899,-2.5993,-2.6012,-2.6038,-2.6025,-2.6048,-2.6062,-2.6062,-2.616,-2.6101,-2.6158,-2.6256,-2.6278,-2.6301,-2.6493,-2.6447,-2.6511,-2.6623,-2.6693,-2.6716,-2.6737,-2.6806,-2.6831,-2.6526,-2.6526,-2.6526,0,-2.5986,-2.6084,-2.6047,-2.6126,-2.6155,-2.6084,-2.6179,-2.6199,-2.6241,-2.6263,-2.6212,-2.6333,-2.6346,-2.6471,-2.6517,-2.6538,-2.6563,-2.651,-2.6716,-2.6736,-2.6754,-2.682,-2.6846,-2.6534,-2.6533,-2.6532,-2.6532,0,-2.6206,-2.6275,-2.6348,-2.639,-2.6426,-2.6513,-2.6489,-2.653,-2.65,-2.6493,-2.6593,-2.6605,-2.6658,-2.6685,-2.6657,-2.6805,-2.6777,-2.6722,-2.6634,-2.6791,-2.6852,-2.6876,-2.6545,-2.6542,-2.654,-2.6538,0,0,-2.6469,-2.6488,-2.6516,-2.6534,-2.6557,-2.6609,-2.6692,-2.6743,-2.6779,-2.681,-2.6879,-2.6962,-2.6911,-2.6938,-2.6911,-2.6972,-2.7124,-2.6909,-2.6909,-2.695,-2.7289,-2.7332,-2.7361,-2.7092,-2.7097,-2.7101,-2.7287,0,-2.6655,-2.6798,-2.6766,-2.6907,-2.697,-2.6902,-2.6974,-2.6996,-2.6991,-2.7043,-2.7036,-2.7096,-2.7024,-2.7039,-2.7097,-2.7094,-2.7192,-2.7079,-2.7156,-2.716,-2.7154,-2.7393,-2.7439,-2.7614,-2.731,-2.7314,-2.7317,0,-2.6892,-2.6931,-2.7078,-2.709,-2.7115,-2.718,-2.7224,-2.7275,-2.7297,-2.7289,-2.7318,-2.7279,-2.736,-2.7269,-2.7381,-2.7305,-2.7334,-2.7336,-2.7342,-2.735,-2.725,-2.7409,-2.7669,-2.7696,-2.7354,-2.7351,-2.7349,0,-2.707,-2.7159,-2.7259,-2.7276,-2.7292,-2.734,-2.7349,-2.7366,-2.7398,-2.7436,-2.7457,-2.7504,-2.753,-2.7567,-2.7541,-2.7477,-2.7657,-2.7564,-2.7653,-2.7654,-2.7696,-2.7694,-2.7966,-2.7712,-2.7711,-2.7711,-2.771,0,-2.7282,-2.7375,-2.7339,-2.7401,-2.7502,-2.7464,-2.7566,-2.7566,-2.7582,-2.7642,-2.7586,-2.7644,-2.7605,-2.7659,-2.7639,-2.7735,-2.7746,-2.7742,-2.7736,-2.7748,-2.7749,-2.7768,-2.7756,-2.7718,-2.7716,-2.7715,-2.7714,0,-2.75,-2.748,-2.7584,-2.759,-2.7593,-2.7668,-2.7673,-2.773,-2.7719,-2.7796,-2.7811,-2.7795,-2.7856,-2.7832,-2.7897,-2.7883,-2.8006,-2.7983,-2.7999,-2.7993,-2.8084,-2.8076,-2.838,-2.8418,-2.8138,-2.814,-2.8143,0,-2.7638,-2.7708,-2.7721,-2.7757,-2.777,-2.7829,-2.7861,-2.7825,-2.7861,-2.7891,-2.7945,-2.8,-2.8043,-2.8142,-2.8136,-2.8185,-2.8164,-2.8266,-2.8171,-2.8181,-2.8167,-2.8164,-2.817,-2.8287,-2.829,-2.8293,-2.8295,0,-2.7885,-2.7871,-2.792,-2.7966,-2.8006,-2.804,-2.8069,-2.8101,-2.8066,-2.811,-2.8171,-2.8204,-2.8269,-2.8325,-2.8368,-2.8376,-2.8331,-2.8324,-2.8348,-2.8362,-2.8369,-2.8367,-2.8053,-2.8318,-2.8316,-2.8314,-2.8313,-2.8312,-2.8068,-2.8127,-2.8145,-2.8201,-2.8219,-2.8247,-2.83,-2.8296,-2.8346,-2.8396,-2.8371,-2.8442,-2.8461,-2.8514,-2.8529,-2.8584,-2.8544,-2.8577,-2.8586,-2.8595,-2.8608,-2.8358,-2.8591,-2.859,-2.859,-2.8589,-2.8589,0,-2.8313,-2.8321,-2.8373,-2.8415,-2.8459,-2.841,-2.8439,-2.8479,-2.8543,-2.8564,-2.8607,-2.8677,-2.873,-2.8727,-2.8776,-2.882,-2.88,-2.8834,-2.8832,-2.8834,-2.864,-2.8616,-2.885,-2.885,-2.885,-2.885,-2.885,-2.8849,-2.8446,-2.8543,-2.8531,-2.8636,-2.8642,-2.8712,-2.8732,-2.8758,-2.8774,-2.8855,-2.8899,-2.8896,-2.8908,-2.8957,-2.9003,-2.9001,-2.9022,-2.9065,-2.9055,-2.8874,-2.8848,-2.8824,-2.88,-2.9069,-2.9069,-2.9244,-2.9246,-2.9247]},{"header":{"parameterUnit":"m.s-1","parameterCategory":1,"la1":30.2991,"la2":30.254,"lo1":-89.0895,"lo2":-89.0444,"dy":0.0017,"dx":0.0017,"nx":28,"ny":28,"refTime":"2025-11-28T03:00:00:Z","depth":0,"parameterNumber":3,"parameterNumberName":"V-component_of_WINDS"},"data":[0,0,0,0,0,0,0,0,0,0,0,0,0,0,0,0,0,0,0,0,0,0,0,0,0,0,0,0,0,0,0,0,0,0,0,0,0,0,0,0,0,0,0,0,0,0,0,0,0,0,0,0,0,0,0,0,0,0,-7.1202,-7.1203,0,-7.134,-7.1342,-7.1344,-7.1221,-7.1216,-7.1211,-7.1207,-7.1342,-7.135,-7.1358,0,0,0,0,0,0,0,0,0,0,0,0,0,-7.0825,-7.0833,-7.1202,-7.1204,-7.1205,-7.134,-7.1342,-7.1344,-7.1222,-7.1216,-7.121,-7.1204,-7.134,-7.1349,-7.1359,0,0,0,0,0,0,0,0,0,0,0,0,0,-7.0979,-7.0835,-7.1202,-7.1161,-7.1159,-7.134,-7.1342,-7.1344,-7.1224,-7.1216,-7.1209,-7.1202,-7.1336,-7.1348,-7.1361,-7.1587,0,0,-7.1398,-7.1404,0,0,0,0,0,0,0,0,-7.097,-7.0992,-7.1165,-7.1164,-7.1162,-7.1256,-7.1259,-7.1426,-7.1225,-7.1199,-7.1207,-7.1198,-7.1319,-7.1333,-7.1375,-7.1593,-7.1599,-7.1399,-7.1407,-7.1412,-7.1416,0,0,0,0,0,0,0,-7.0959,-7.0986,-7.1256,-7.1168,-7.1166,-7.1134,-7.1147,-7.129,-7.1299,-7.1201,-7.1192,-7.121,-7.1317,-7.1363,-7.1377,-7.1601,-7.1399,-7.141,-7.1418,-7.1423,-7.201,-7.2018,0,0,0,0,0,0,-7.0954,-7.0978,-7.1252,-7.1261,-7.1046,-7.1147,-7.1162,-7.1233,-7.1297,-7.13,-7.1217,-7.1204,-7.1346,-7.1363,-7.1381,-7.165,-7.1412,-7.1424,-7.1431,-7.2002,-7.2012,-7.2021,0,0,0,0,0,0,-7.0946,-7.098,-7.1246,-7.1117,-7.1149,-7.1161,-7.1242,-7.124,-7.1286,-7.131,-7.131,-7.1263,-7.134,-7.1364,-7.1537,-7.1653,-7.1429,-7.1441,-7.1993,-7.2005,-7.2017,-7.219,0,0,0,0,0,0,-7.0936,-7.0978,-7.1066,-7.112,-7.1156,-7.1403,-7.125,-7.1248,-7.1309,-7.1294,-7.1353,-7.1355,-7.1336,-7.1519,-7.1549,-7.1666,-7.145,-7.1982,-7.1998,-7.2013,-7.2174,-7.2207,-7.2235,0,0,0,0,0,-7.0923,-7.1108,-7.1071,-7.1104,-7.1266,-7.1409,-7.143,-7.1406,-7.1319,-7.1406,-7.1421,-7.1354,-7.1636,-7.1538,-7.1571,-7.1693,-7.1975,-7.1994,-7.2012,-7.216,-7.22,-7.2234,0,0,0,0,0,0,-7.1064,-7.1114,-7.1074,-7.1282,-7.1343,-7.1389,-7.1498,-7.1449,-7.1534,-7.1516,-7.1481,-7.1495,-7.1678,-7.1702,-7.1593,-7.1915,-7.1791,-7.1817,-7.1893,-7.1931,-7.1961,-7.1951,-7.1461,0,0,0,0,0,-7.112,-7.1234,-7.127,-7.145,-7.1483,-7.1486,-7.1547,-7.1524,-7.1584,-7.1609,-7.1636,-7.1696,-7.1797,-7.1865,-7.196,-7.2177,-7.2187,-7.2277,-7.2307,-7.2332,-7.2355,-7.247,-7.2511,-7.2082,-7.2081,-7.2081,0,0,-7.1236,-7.1277,-7.1351,-7.148,-7.1524,-7.1641,-7.1508,-7.1638,-7.1723,-7.1627,-7.1793,-7.1816,-7.1879,-7.2075,-7.2163,-7.2101,-7.2476,-7.2355,-7.2375,-7.2385,-7.2494,-7.2534,-7.257,-7.2094,-7.2092,-7.209,0,0,-7.1506,-7.155,-7.1704,-7.1752,-7.1821,-7.1822,-7.1859,-7.1913,-7.1925,-7.2091,-7.2021,-7.2121,-7.2298,-7.2346,-7.2394,-7.2683,-7.2624,-7.2714,-7.2873,-7.2986,-7.302,-7.305,-7.3152,-7.319,-7.2737,-7.2737,-7.2737,0,-7.1641,-7.1817,-7.1789,-7.1925,-7.1983,-7.1903,-7.2059,-7.2105,-7.2201,-7.2242,-7.2172,-7.2392,-7.2429,-7.2635,-7.2706,-7.2747,-7.2787,-7.2708,-7.3018,-7.3047,-7.3075,-7.3172,-7.3211,-7.2748,-7.2746,-7.2745,-7.2744,0,-7.1978,-7.2101,-7.2217,-7.2315,-7.2386,-7.2531,-7.2523,-7.2598,-7.2568,-7.2575,-7.2744,-7.2786,-7.2888,-7.2935,-7.2906,-7.3137,-7.3097,-7.3023,-7.2898,-7.3127,-7.3218,-7.3255,-7.2763,-7.2759,-7.2756,-7.2753,0,0,-7.2343,-7.2424,-7.2467,-7.251,-7.2581,-7.2674,-7.2814,-7.2916,-7.298,-7.3048,-7.3164,-7.3315,-7.3248,-7.3302,-7.3277,-7.3377,-7.3602,-7.329,-7.3291,-7.3347,-7.3858,-7.3914,-7.3958,-7.3563,-7.357,-7.3576,-7.3853,0,-7.2617,-7.2863,-7.2842,-7.3074,-7.3186,-7.3112,-7.3233,-7.3289,-7.3299,-7.3394,-7.3403,-7.3511,-7.3414,-7.3446,-7.3541,-7.3555,-7.3704,-7.3534,-7.3669,-7.3674,-7.3656,-7.4005,-7.4064,-7.4324,-7.3888,-7.3894,-7.3899,0,-7.2969,-7.3053,-7.3297,-7.335,-7.3397,-7.3507,-7.3598,-7.369,-7.3751,-7.3751,-7.3812,-7.377,-7.3909,-7.378,-7.397,-7.3855,-7.3908,-7.3923,-7.3932,-7.3944,-7.3801,-7.4027,-7.4406,-7.4445,-7.3954,-7.395,-7.3946,0,-7.3211,-7.3384,-7.3552,-7.3591,-7.3658,-7.3737,-7.3768,-7.3821,-7.3883,-7.3962,-7.4002,-7.4095,-7.4146,-7.4218,-7.4202,-7.411,-7.4395,-7.4265,-7.4398,-7.4399,-7.4462,-7.4458,-7.4856,-7.4496,-7.4496,-7.4495,-7.4494,0,-7.3519,-7.3671,-7.3662,-7.3766,-7.3933,-7.3906,-7.4072,-7.4093,-7.4141,-7.4246,-7.4185,-7.4284,-7.4257,-7.4354,-7.4342,-7.45,-7.4524,-7.4526,-7.4521,-7.4533,-7.4532,-7.4567,-7.4549,-7.4505,-7.4503,-7.4501,-7.4499,0,-7.3818,-7.3818,-7.3996,-7.4045,-7.4061,-7.4182,-7.4222,-7.4319,-7.4324,-7.4457,-7.4487,-7.4494,-7.4606,-7.4597,-7.4721,-7.4712,-7.4909,-7.4882,-7.489,-7.4884,-7.5017,-7.5005,-7.5451,-7.5508,-7.5112,-7.5116,-7.5119,0,-7.4015,-7.4131,-7.4192,-7.4259,-7.4296,-7.4405,-7.4468,-7.4445,-7.4514,-7.4591,-7.4678,-7.4785,-7.4869,-7.5049,-7.5064,-7.5159,-7.5134,-7.5284,-7.5148,-7.5155,-7.5137,-7.513,-7.5141,-7.5311,-7.5315,-7.5319,-7.5322,0,-7.4365,-7.4359,-7.4455,-7.4551,-7.463,-7.4704,-7.4771,-7.4828,-7.4812,-7.4891,-7.5006,-7.5071,-7.5199,-7.5305,-7.5395,-7.5423,-7.5371,-7.5365,-7.54,-7.5413,-7.5413,-7.5415,-7.4963,-7.5355,-7.5351,-7.5349,-7.5347,-7.5346,-7.4619,-7.4718,-7.4777,-7.4886,-7.4934,-7.4998,-7.5092,-7.5109,-7.5205,-7.5309,-7.5289,-7.5417,-7.5472,-7.5588,-7.5626,-7.5724,-7.567,-7.5722,-7.5735,-7.5748,-7.5764,-7.5397,-7.574,-7.5739,-7.5738,-7.5738,-7.5737,0,-7.4966,-7.5,-7.51,-7.5197,-7.5282,-7.5227,-7.5298,-7.5372,-7.5487,-7.5544,-7.5628,-7.5759,-7.5861,-7.5884,-7.5982,-7.6056,-7.6034,-7.6082,-7.6077,-7.6084,-7.5807,-7.5766,-7.6098,-7.6098,-7.6098,-7.6098,-7.6098,-7.6098,-7.5156,-7.5322,-7.5323,-7.5511,-7.5543,-7.567,-7.5716,-7.5774,-7.582,-7.597,-7.6055,-7.607,-7.6113,-7.6213,-7.6304,-7.6307,-7.6346,-7.6404,-7.6399,-7.614,-7.6103,-7.6069,-7.6031,-7.6413,-7.6413,-7.6668,-7.667,-7.6672]}]]